Probability
0 0 0 0 0 0 0 0 0 0 0 0 0 10 13 19 23 35 32 29 32 39 39 42 55 58 48 42 42 39 32 23 26 29 29 19 16 13 10 16 19 29 32 26
0 0 0 0 0 0 0 0 0 0 0 3 3 6 6 16 19 29 35 39 45 32 35 39 48 58 61 55 45 48 42 23 32 42 35 23 19 10 16 19 26 26 29 16
0 0 0 0 0 0 0 0 0 0 0 3 3 6 6 10 16 19 29 42 45 48 45 45 55 61 61 61 55 58 48 32 35 42 32 29 13 19 19 16 19 26 29 19
0 0 0 0 0 0 0 0 0 0 0 0 0 0 6 10 19 32 29 32 35 48 52 48 61 52 58 65 58 55 52 55 48 52 48 39 32 32 26 19 23 19 26 26
0 0 0 0 0 0 0 0 0 0 0 0 0 0 0 6 13 19 35 32 42 48 52 55 68 65 68 65 61 52 52 55 48 48 52 48 42 39 16 16 13 16 19 23
0 0 0 0 0 0 0 0 0 0 0 0 0 0 0 0 10 19 29 35 48 48 48 61 58 74 61 61 58 55 45 52 45 42 45 45 45 32 23 23 19 19 19 19
0 0 0 0 0 0 0 0 0 0 0 0 0 0 0 0 0 13 19 39 45 48 65 65 65 68 68 68 58 48 48 48 42 42 39 39 32 29 29 29 23 19 16 19
0 0 0 0 0 0 0 0 0 0 0 0 0 0 0 0 0 6 13 32 45 52 58 68 68 74 71 68 68 58 55 52 45 45 42 35 23 26 32 26 29 23 19 16
0 0 0 0 0 0 0 0 0 0 0 0 0 0 0 0 3 6 23 35 45 42 55 61 71 74 71 74 68 61 58 52 45 45 45 39 29 23 29 26 23 23 19 16
0 0 0 0 0 0 0 0 0 0 0 0 0 0 0 0 3 10 10 26 35 45 48 58 68 68 65 71 65 61 52 48 39 39 39 39 35 29 23 23 26 29 32 23
0 0 0 0 0 0 0 0 0 0 0 0 0 0 0 3 3 6 6 13 23 32 48 58 61 71 65 65 61 55 52 45 39 39 39 35 35 35 29 26 26 26 23 26
0 0 0 0 0 0 0 0 0 0 0 0 0 0 0 3 3 10 13 16 26 32 45 55 58 61 61 58 65 58 52 48 42 39 39 35 32 32 35 35 32 29 19 23
0 0 0 0 0 0 0 0 0 0 0 0 0 0 0 3 6 10 10 13 19 23 42 45 52 58 55 58 65 58 52 39 39 35 35 35 35 39 35 32 26 29 26 26
0 0 0 0 0 0 0 0 0 0 0 0 0 0 0 0 3 10 10 13 26 23 26 42 48 45 52 48 48 45 45 42 39 35 39 35 39 39 35 32 35 32 32 29
0 0 0 0 0 0 0 0 0 0 0 0 0 0 0 0 10 10 16 16 26 23 32 35 45 42 45 39 39 42 48 39 42 39 39 35 35 32 32 32 35 32 32 32
0 0 0 0 0 0 0 0 0 0 0 0 0 0 0 3 6 10 10 16 19 19 26 26 35 39 42 48 42 42 42 39 39 35 32 35 35 32 32 29 29 32 29 29
0 0 0 0 0 0 0 0 0 0 0 0 0 0 0 3 6 13 13 10 19 23 26 29 35 42 45 45 45 48 39 35 39 39 35 32 32 29 29 26 29 32 29 26
0 0 0 0 0 0 0 0 0 0 3 3 3 0 3 3 13 13 13 16 23 19 32 35 29 32 42 35 42 42 35 32 32 35 35 32 32 29 29 29 26 19 19 19
0 0 0 0 0 0 0 0 0 0 0 3 3 3 10 10 6 6 10 16 23 19 26 13 16 19 26 29 29 29 29 29 29 29 29 26 23 26 26 26 19 19 19 19
0 0 0 0 0 0 0 0 0 0 0 0 0 6 10 10 10 6 13 16 19 19 16 19 19 19 19 19 23 35 29 29 32 29 26 23 23 23 19 19 19 16 16 16
0 0 0 0 0 0 0 0 0 0 0 3 0 10 10 6 10 6 10 10 13 16 10 10 13 10 16 16 23 29 26 26 19 23 19 16 16 16 16 16 16 16 13 13
0 0 0 0 0 0 0 0 0 0 0 0 0 6 6 10 10 10 13 16 16 10 3 3 6 10 10 16 23 26 19 16 16 10 10 13 13 13 16 13 13 10 10 10
0 0 0 0 0 0 0 0 0 0 0 6 3 3 3 6 6 3 3 3 6 3 13 6 10 13 13 19 19 19 16 16 13 13 13 13 10 6 6 6 6 10 10 10
0 0 0 0 0 0 0 0 0 3 3 6 6 6 6 6 3 6 6 6 10 6 10 3 6 13 10 10 16 10 10 13 13 13 10 10 10 6 6 6 6 6 10 10
0 0 0 0 0 0 0 0 3 3 3 6 6 6 6 3 10 6 6 6 6 6 6 0 3 13 10 6 3 6 10 6 6 6 10 3 3 0 3 3 3 3 3 3
0 0 0 0 0 0 0 0 0 6 6 6 6 6 3 6 10 6 3 3 6 10 6 10 6 10 10 3 3 6 6 3 3 0 0 0 0 0 0 0 3 0 0 0
Height
5840 5845 5849 5853 5857 5860 5863 5867 5870 5872 5873 5876 5879 5881 5883 5885 5887 5888 5890 5891 5891 5891 5891 5890 5890 5890 5889 5888 5888 5888 5888 5887 5887 5887 5887 5887 5887 5887 5888 5888 5889 5889 5889 5890
5835 5840 5844 5846 5850 5854 5858 5863 5866 5868 5869 5872 5875 5878 5880 5882 5885 5886 5888 5888 5889 5889 5889 5889 5888 5888 5888 5888 5887 5887 5887 5887 5887 5887 5886 5886 5886 5887 5887 5887 5887 5888 5888 5889
5829 5834 5837 5840 5845 5849 5853 5858 5862 5864 5865 5868 5872 5874 5877 5880 5882 5884 5885 5886 5887 5887 5887 5887 5886 5886 5886 5886 5886 5886 5886 5886 5886 5886 5886 5886 5886 5886 5886 5886 5886 5886 5886 5887
5821 5826 5830 5835 5839 5844 5849 5853 5856 5859 5861 5863 5867 5870 5874 5876 5878 5881 5882 5883 5884 5885 5885 5885 5885 5884 5884 5885 5885 5885 5885 5885 5885 5885 5885 5885 5885 5884 5884 5884 5884 5885 5885 5885
5815 5820 5824 5829 5835 5839 5844 5847 5851 5854 5856 5859 5862 5866 5871 5872 5875 5878 5880 5880 5881 5882 5882 5882 5882 5882 5882 5882 5883 5883 5883 5884 5884 5884 5884 5883 5883 5883 5883 5883 5882 5883 5883 5884
5809 5813 5818 5824 5828 5833 5837 5841 5845 5848 5851 5854 5859 5862 5866 5869 5872 5875 5876 5877 5878 5879 5880 5880 5880 5880 5880 5880 5880 5881 5881 5881 5882 5882 5882 5881 5881 5881 5881 5880 5881 5881 5881 5882
5803 5808 5813 5817 5822 5826 5831 5836 5840 5843 5845 5850 5855 5857 5862 5866 5868 5871 5872 5873 5874 5876 5876 5877 5877 5878 5877 5878 5877 5878 5878 5879 5879 5879 5879 5879 5879 5879 5878 5878 5879 5879 5879 5879
5797 5803 5808 5812 5817 5822 5826 5831 5836 5839 5842 5847 5850 5852 5858 5862 5864 5866 5868 5870 5871 5872 5873 5874 5875 5875 5875 5875 5875 5875 5876 5876 5876 5876 5876 5876 5876 5876 5876 5876 5876 5877 5877 5877
5792 5798 5803 5807 5812 5817 5821 5825 5831 5834 5837 5841 5845 5849 5854 5857 5860 5862 5864 5866 5867 5869 5870 5871 5871 5872 5872 5872 5872 5872 5872 5873 5873 5873 5873 5873 5873 5873 5873 5873 5873 5874 5874 5874
5786 5792 5797 5801 5806 5810 5816 5820 5824 5828 5831 5835 5840 5845 5849 5853 5856 5858 5860 5862 5864 5865 5867 5867 5868 5868 5868 5869 5869 5868 5869 5869 5869 5870 5869 5870 5870 5870 5870 5870 5871 5871 5871 5871
5781 5787 5791 5796 5800 5805 5810 5814 5818 5823 5827 5831 5835 5842 5845 5849 5851 5854 5856 5858 5860 5862 5863 5863 5864 5864 5864 5865 5865 5865 5865 5866 5866 5865 5865 5866 5866 5866 5867 5867 5868 5868 5868 5869
5777 5781 5786 5791 5795 5799 5804 5809 5813 5818 5822 5826 5830 5839 5840 5844 5847 5849 5852 5854 5856 5858 5859 5859 5860 5860 5860 5861 5862 5862 5862 5862 5862 5862 5862 5862 5862 5863 5863 5864 5864 5865 5865 5865
5772 5777 5781 5786 5792 5795 5798 5803 5808 5812 5816 5820 5824 5833 5836 5839 5842 5845 5847 5849 5852 5854 5855 5856 5856 5856 5857 5858 5859 5859 5859 5859 5859 5859 5859 5859 5859 5860 5860 5860 5861 5861 5862 5862
5768 5772 5778 5783 5786 5790 5794 5798 5803 5807 5810 5814 5819 5826 5831 5834 5837 5840 5842 5845 5847 5849 5850 5851 5852 5853 5854 5854 5854 5855 5855 5855 5855 5855 5855 5855 5856 5856 5856 5857 5857 5858 5858 5858
5763 5767 5772 5777 5781 5785 5789 5793 5797 5801 5805 5810 5815 5819 5825 5829 5832 5835 5837 5840 5842 5844 5846 5847 5848 5848 5849 5850 5850 5850 5851 5851 5851 5852 5852 5852 5852 5853 5853 5853 5853 5854 5854 5854
5758 5763 5767 5771 5775 5779 5784 5788 5792 5796 5800 5804 5809 5814 5819 5823 5826 5830 5832 5835 5838 5840 5841 5843 5844 5844 5845 5845 5846 5846 5846 5847 5848 5848 5848 5849 5849 5849 5849 5850 5850 5850 5850 5851
5753 5757 5762 5766 5770 5774 5778 5783 5786 5790 5794 5799 5803 5809 5813 5817 5821 5825 5828 5830 5833 5835 5837 5838 5839 5840 5841 5842 5842 5842 5842 5843 5844 5845 5845 5845 5845 5845 5846 5846 5846 5847 5846 5846
5748 5752 5757 5761 5765 5768 5776 5778 5781 5785 5789 5793 5797 5802 5806 5811 5815 5819 5822 5825 5827 5829 5831 5833 5834 5835 5836 5837 5837 5837 5838 5839 5840 5840 5841 5841 5841 5842 5842 5842 5843 5843 5842 5842
5742 5747 5751 5755 5759 5763 5769 5772 5775 5779 5783 5787 5791 5795 5800 5804 5808 5812 5816 5819 5821 5823 5825 5827 5828 5830 5831 5832 5833 5833 5833 5834 5835 5835 5836 5837 5837 5838 5838 5839 5839 5839 5838 5838
5736 5740 5745 5749 5753 5757 5764 5766 5769 5774 5777 5781 5785 5789 5793 5798 5802 5807 5810 5813 5815 5817 5820 5821 5823 5824 5826 5827 5827 5828 5828 5829 5830 5831 5831 5832 5833 5834 5834 5834 5834 5834 5833 5833
5730 5734 5738 5742 5746 5751 5757 5760 5764 5769 5772 5775 5778 5782 5787 5791 5796 5801 5804 5807 5809 5812 5814 5816 5817 5819 5820 5821 5822 5822 5823 5824 5825 5826 5826 5827 5828 5829 5830 5830 5830 5829 5829 5828
5724 5728 5732 5736 5740 5748 5750 5754 5758 5760 5764 5768 5772 5777 5781 5785 5789 5794 5797 5801 5803 5806 5809 5811 5812 5814 5815 5816 5817 5817 5818 5819 5820 5821 5822 5822 5823 5824 5825 5825 5825 5824 5824 5823
5717 5722 5726 5731 5736 5740 5744 5747 5751 5754 5758 5762 5767 5771 5775 5779 5783 5787 5791 5795 5798 5800 5803 5805 5807 5809 5810 5811 5812 5812 5813 5814 5815 5816 5817 5818 5819 5819 5819 5820 5819 5819 5818 5817
5711 5715 5719 5724 5728 5733 5737 5741 5744 5748 5752 5756 5761 5765 5769 5774 5777 5781 5785 5789 5792 5794 5797 5799 5801 5803 5804 5805 5806 5806 5808 5809 5811 5812 5813 5813 5814 5814 5814 5814 5814 5813 5812 5812
5705 5709 5713 5717 5722 5726 5730 5734 5738 5742 5746 5751 5755 5759 5763 5767 5771 5775 5779 5782 5786 5788 5791 5793 5795 5797 5799 5800 5801 5802 5803 5805 5806 5807 5808 5808 5808 5809 5809 5808 5808 5807 5806 5806
5699 5703 5707 5711 5716 5720 5724 5727 5732 5736 5740 5744 5749 5753 5757 5761 5765 5769 5773 5776 5779 5782 5785 5787 5789 5791 5793 5794 5795 5796 5798 5799 5801 5801 5802 5802 5802 5803 5803 5802 5801 5801 5800 5799
Wind_Speed
32 32 30 29 29 29 28 27 26 26 26 24 22 20 18 16 13 11 9 7 7 6 6 6 7 7 6 6 5 6 5 5 5 5 5 4 4 5 5 5 5 6 6 6
33 32 31 32 31 31 30 28 27 28 29 27 24 22 20 18 15 12 10 10 9 8 7 7 7 7 7 7 6 6 6 5 5 5 6 6 5 5 6 6 6 6 6 6
33 32 33 33 32 31 30 29 29 30 30 29 27 25 22 19 17 14 12 12 11 9 8 7 7 7 7 7 7 7 6 6 6 6 6 5 5 6 7 7 8 8 8 8
34 34 33 33 33 31 30 30 31 32 32 31 29 27 23 21 19 15 13 12 11 10 9 8 8 8 8 8 8 8 7 7 7 7 7 7 7 7 8 8 8 9 9 8
34 34 33 33 32 32 30 31 32 33 34 34 31 28 24 22 19 15 14 13 12 11 10 10 10 10 10 9 9 9 8 8 8 8 8 8 9 8 9 9 9 9 9 9
34 34 34 33 33 33 33 33 33 34 35 35 31 29 24 22 19 17 15 14 14 13 12 11 11 12 11 10 10 10 10 9 9 9 9 9 10 10 9 9 9 9 10 11
33 34 34 34 35 35 35 35 34 34 35 34 31 30 25 21 20 18 16 15 14 14 13 13 13 13 12 11 11 11 11 11 10 10 11 10 10 10 10 10 10 10 11 11
33 33 34 34 35 35 35 35 35 34 35 33 31 31 26 23 20 18 17 16 15 15 15 14 14 14 13 13 12 12 12 12 12 11 12 11 11 11 11 11 12 12 12 12
32 32 33 34 34 35 35 35 34 35 35 34 33 31 28 25 22 20 19 18 16 15 15 15 15 15 14 14 13 13 13 13 13 13 12 12 12 12 12 12 12 12 12 12
32 32 33 34 35 36 36 35 35 36 35 35 33 31 29 26 24 22 20 19 17 15 15 16 16 15 15 15 14 13 14 14 14 14 13 12 12 13 13 13 13 13 13 13
31 32 33 35 35 35 36 37 37 36 36 35 33 30 27 25 24 23 21 20 18 17 16 16 17 16 16 15 15 14 14 13 14 14 13 13 13 13 13 13 14 14 14 13
30 32 33 34 35 36 36 36 36 36 36 35 33 30 27 26 26 24 23 21 19 17 16 17 17 17 16 15 15 15 14 14 14 14 13 13 12 12 13 13 14 14 14 14
29 31 32 34 35 36 36 36 36 36 36 35 33 30 27 26 25 25 24 22 20 18 18 18 19 18 17 16 15 15 15 15 14 14 14 13 13 13 14 14 14 14 14 14
28 29 31 32 33 34 34 35 35 36 36 34 32 29 27 26 26 25 25 24 22 21 20 19 18 18 17 16 16 16 16 16 16 15 14 13 14 14 14 15 15 14 14 15
28 29 29 30 31 32 32 33 34 35 35 34 32 30 27 27 26 25 25 25 23 22 21 20 18 17 17 16 16 16 16 16 16 16 15 14 14 14 14 14 14 14 15 15
29 29 29 30 31 31 32 33 33 34 34 33 32 30 28 28 26 24 24 24 23 22 21 20 19 19 18 16 15 16 15 15 15 16 15 14 14 14 14 15 15 16 16 16
29 29 29 29 30 31 32 32 32 33 33 33 32 31 30 29 28 25 24 23 23 22 21 20 20 19 18 17 16 16 16 16 16 15 16 15 15 15 15 15 16 16 16 17
30 29 30 29 30 32 31 31 31 32 32 31 30 30 30 29 28 27 26 24 24 24 23 22 21 20 19 18 18 16 16 16 17 17 16 16 16 15 16 16 16 16 17 17
30 30 30 31 32 31 31 31 31 31 31 30 29 28 29 28 28 28 28 27 25 24 23 21 21 20 19 19 19 19 17 17 17 16 16 16 16 16 15 16 16 16 17 17
31 31 31 31 31 32 30 30 30 30 31 30 29 28 28 28 28 27 27 27 27 25 24 22 21 21 21 20 20 19 18 18 17 17 17 17 16 16 16 16 16 17 18 18
32 32 31 31 32 31 30 31 30 30 30 29 29 27 26 27 28 27 27 27 26 24 22 22 22 22 21 20 20 19 19 18 18 18 18 18 18 17 17 17 17 18 18 19
32 32 32 32 32 31 30 30 31 31 30 29 29 28 27 27 28 28 28 27 26 25 23 22 21 21 21 20 19 18 18 18 18 18 19 19 19 18 18 18 18 18 19 20
32 32 32 32 32 31 30 30 31 30 30 29 29 29 28 27 27 27 27 27 26 24 24 22 21 20 21 20 19 19 19 17 16 17 17 18 18 19 19 19 19 20 20 21
31 31 32 32 32 31 30 30 30 29 28 28 27 27 27 26 26 27 27 26 26 26 24 23 22 21 21 21 20 19 18 17 17 18 18 19 20 21 21 21 21 21 21 22
30 31 31 31 31 31 31 31 30 29 28 27 28 27 27 26 26 27 27 26 25 25 25 24 23 23 22 22 21 19 18 19 19 19 20 20 20 21 21 21 21 22 22 22
29 30 30 30 30 30 30 31 30 29 28 28 28 28 28 27 27 27 26 25 25 25 25 25 24 23 22 22 22 21 20 20 20 20 21 21 21 21 20 20 21 21 22 22
Wind_Direction
236 235 234 233 231 230 229 227 227 231 237 240 242 243 246 251 254 258 266 273 279 282 295 306 309 314 317 317 316 312 313 306 303 300 300 290 268 251 251 252 254 247 247 247
235 234 231 230 230 229 228 225 224 228 235 237 241 242 245 249 251 253 257 263 268 270 283 295 297 298 304 302 299 295 298 297 296 296 295 292 280 262 259 259 259 255 254 253
233 231 230 230 229 229 227 224 222 225 233 238 241 243 245 246 246 246 251 258 263 265 273 281 285 291 289 289 292 284 280 283 286 291 293 298 286 271 266 266 260 261 257 255
230 229 228 228 228 227 226 224 222 225 230 235 241 243 244 247 248 248 252 258 260 261 265 272 275 284 284 281 285 285 281 280 280 287 292 288 283 273 268 268 266 261 255 256
228 227 227 226 226 225 222 222 222 224 229 234 240 244 243 246 248 251 254 255 253 254 262 269 271 280 284 278 280 281 279 278 279 282 287 285 283 281 275 272 262 257 253 256
225 225 225 223 222 221 221 222 223 226 230 234 238 245 245 247 250 253 254 252 249 252 258 262 265 271 279 277 277 276 272 271 274 279 284 284 282 280 275 269 260 256 256 257
224 224 223 221 220 220 221 222 224 227 230 234 237 242 244 245 249 251 252 248 247 251 255 257 263 271 275 275 269 273 272 269 270 276 281 283 282 277 272 267 262 260 260 260
223 223 222 221 221 222 223 224 226 229 232 235 237 240 243 245 248 251 249 247 246 250 254 256 259 264 269 272 271 271 272 270 269 273 278 280 278 276 271 266 261 261 260 260
222 222 221 220 220 222 223 225 227 230 233 235 236 239 243 243 246 250 249 248 248 248 248 252 255 258 262 266 270 269 269 269 268 269 272 277 276 272 269 266 263 262 262 263
220 220 218 218 219 221 223 225 226 229 233 236 238 239 242 243 245 248 248 249 249 245 246 251 254 255 258 263 266 268 268 266 267 268 266 270 273 271 267 263 264 265 265 264
219 218 217 217 219 221 223 224 227 231 235 237 239 239 241 241 242 245 248 250 249 244 244 250 254 256 254 258 263 264 269 269 270 270 269 272 269 267 267 266 267 266 265 262
219 217 216 217 218 220 223 226 229 232 236 238 240 239 239 239 240 244 246 248 247 244 245 250 254 256 255 256 261 262 266 267 269 272 271 270 267 265 267 267 266 265 265 262
220 219 217 217 219 221 224 226 229 232 235 238 239 238 235 238 239 241 243 245 245 246 247 251 254 255 260 260 262 263 265 266 267 270 270 267 267 268 268 266 263 264 264 263
221 221 220 220 222 224 226 228 230 232 235 237 239 238 232 234 237 239 242 243 245 247 248 253 258 256 259 262 264 264 264 264 264 267 267 266 267 268 265 264 264 265 267 267
222 222 221 221 221 224 226 229 230 233 236 238 239 239 233 233 236 238 240 241 244 247 249 254 259 260 260 261 265 262 263 263 264 264 264 268 269 267 266 266 263 263 267 268
225 224 223 222 222 224 226 228 230 233 236 239 240 239 234 233 235 235 237 238 242 244 247 251 255 257 259 261 265 261 262 264 266 265 264 265 268 266 263 266 265 263 267 268
225 225 224 224 224 226 228 228 231 234 237 239 240 239 235 233 233 234 236 238 241 243 246 250 253 255 259 259 262 264 260 263 268 269 266 264 264 264 264 266 267 266 269 271
227 227 226 226 225 228 226 228 230 233 237 239 241 240 238 236 235 235 236 238 241 245 247 254 258 261 259 258 261 260 260 262 266 268 267 266 262 263 265 268 268 268 268 270
228 228 228 228 229 229 227 228 230 233 237 239 240 240 237 236 235 235 237 239 244 247 248 255 259 257 254 257 258 265 263 262 263 266 266 266 265 265 267 269 270 270 272 273
229 230 231 229 230 230 228 230 232 235 238 238 238 238 236 235 235 235 238 241 245 248 251 254 254 253 254 255 257 261 264 262 260 263 264 264 266 265 268 270 273 273 273 276
231 231 232 231 231 230 229 231 234 237 237 236 236 237 236 234 234 234 237 241 244 246 247 250 251 253 256 258 259 265 261 257 257 259 261 262 264 266 268 271 274 276 276 276
233 233 234 234 234 231 231 233 236 238 237 235 234 236 236 234 234 235 237 239 241 243 246 248 250 252 255 257 260 259 254 256 258 259 261 262 262 266 269 274 277 278 278 278
232 232 233 235 235 233 233 234 235 237 237 235 234 234 235 236 234 234 235 236 238 242 245 246 247 251 254 257 259 256 252 252 259 263 262 262 264 267 271 275 278 278 279 279
230 231 233 234 234 233 234 233 233 236 235 234 233 233 235 236 235 234 235 236 238 241 244 246 248 252 256 257 259 253 250 254 259 260 261 264 266 269 271 273 277 277 277 279
229 231 232 233 234 235 235 234 234 235 234 233 232 233 235 236 235 236 236 237 237 240 243 246 250 254 259 262 258 251 253 258 259 260 262 265 267 270 271 273 275 276 277 279
229 230 231 231 233 234 234 236 235 235 235 236 234 233 233 234 235 234 234 232 234 237 243 247 251 254 257 259 256 253 255 257 259 261 263 265 267 269 271 272 274 276 277 277